Vancouver, WA
on Tuesday, December 18, 2012

Tuesday
Previous Day Next Day
Daily Summary
 ActualAverageRecord
Temperature
Mean Temperature °F 40°F  
Max Temperature 41°F 46°F 60°F (1931)
Min Temperature 35°F 34°F 0°F (1924)
Degree Days
Heating Degree Days 27    
Month to date heating degree days 367  
Since 1 July heating degree days 1189  
Cooling Degree Days 0    
Month to date cooling degree days 0  
Year to date cooling degree days 398  
Moisture
Dew Point 33°F   
Average Humidity 86    
Maximum Humidity 92    
Minimum Humidity 79    
Precipitation
Precipitation 0.05 in 0.23 in 1.19 in (1917)
Month to date precipitation 4.54 3.79  
Year to date precipitation 42.86 36.16  
Snow
Snow 0.00 in in in ()
Month to date snowfall 0.0  
Snow Depth 0.00 in   
Wind
Wind Speed 6 mph   
Max Wind Speed 12 mph   
Max Gust Speed 17 mph   
Visibility 10 miles   
Events Rain   

Key: T is trace of precipitation, MM is missing value
Source: NWS Daily Summary
Time(PST)TemperatureDew PointHumidity Pressure Visibility Wind DirectionWind SpeedGust SpeedPrecipitationEvents Conditions
12:24 AM 37.4°F 33.8°F 87% 29.99 in 10.0 miles Variable 4.6 mph - N/A   Scattered Clouds
12:53 AM 37.0°F 33.1°F 86% 29.99 in 10.0 miles South 3.5 mph - N/A   Mostly Cloudy
1:34 AM 37.4°F 33.8°F 87% 29.99 in 10.0 miles South 8.1 mph - N/A   Overcast
1:51 AM 37.4°F 33.8°F 87% 29.99 in 10.0 miles SSE 5.8 mph - N/A   Overcast
1:53 AM 37.0°F 33.1°F 86% 29.99 in 10.0 miles Variable 3.5 mph - N/A   Overcast
2:14 AM 37.4°F 33.8°F 87% 29.99 in 10.0 miles Variable 4.6 mph - N/A   Scattered Clouds
2:53 AM 37.0°F 32.0°F 82% 29.99 in 10.0 miles South 8.1 mph - 0.00 in Rain Light Rain
3:53 AM 36.0°F 33.1°F 89% 29.99 in 10.0 miles South 11.5 mph 16.1 mph 0.01 in Rain Light Rain
4:01 AM 35.6°F 32.0°F 87% 29.99 in 9.0 miles South 8.1 mph 17.3 mph 0.01 in Rain Light Rain
4:37 AM 35.6°F 32.0°F 87% 29.98 in 10.0 miles South 8.1 mph - 0.02 in   Mostly Cloudy
4:53 AM 36.0°F 33.1°F 89% 29.98 in 10.0 miles Variable 4.6 mph - 0.02 in   Mostly Cloudy
5:35 AM 35.6°F 33.8°F 93% 29.99 in 10.0 miles South 6.9 mph - 0.00 in Rain Light Rain
5:53 AM 36.0°F 33.1°F 89% 29.99 in 9.0 miles Variable 4.6 mph - 0.01 in Rain Light Rain
6:35 AM 35.6°F 32.0°F 87% 29.99 in 10.0 miles Calm Calm - 0.00 in   Mostly Cloudy
6:53 AM 36.0°F 32.0°F 86% 30.00 in 10.0 miles Variable 3.5 mph - 0.00 in   Mostly Cloudy
7:34 AM 35.6°F 32.0°F 87% 30.00 in 10.0 miles Calm Calm - N/A   Overcast
7:53 AM 36.0°F 32.0°F 86% 30.01 in 10.0 miles Variable 4.6 mph - N/A   Overcast
8:53 AM 36.0°F 32.0°F 86% 30.02 in 10.0 miles South 4.6 mph - N/A   Mostly Cloudy
9:24 AM 35.6°F 32.0°F 87% 30.03 in 10.0 miles SSE 5.8 mph - N/A   Overcast
9:40 AM 35.6°F 32.0°F 87% 30.03 in 10.0 miles South 6.9 mph - N/A   Overcast
9:53 AM 36.0°F 32.0°F 86% 30.04 in 10.0 miles South 3.5 mph - N/A   Overcast
10:03 AM 37.4°F 32.0°F 81% 30.04 in 10.0 miles South 8.1 mph - N/A   Mostly Cloudy
10:53 AM 37.0°F 32.0°F 82% 30.04 in 10.0 miles SW 5.8 mph - N/A   Overcast
11:02 AM 37.4°F 32.0°F 81% 30.04 in 10.0 miles Variable 3.5 mph - N/A   Overcast
11:53 AM 37.0°F 33.1°F 86% 30.04 in 10.0 miles Variable 3.5 mph - N/A   Overcast
12:53 PM 37.9°F 33.1°F 83% 30.03 in 10.0 miles SSW 8.1 mph - 0.00 in   Overcast
1:06 PM 39.2°F 33.8°F 81% 30.03 in 10.0 miles SSW 4.6 mph - N/A   Overcast
1:18 PM 39.2°F 33.8°F 81% 30.03 in 10.0 miles South 4.6 mph - N/A   Overcast
1:28 PM 39.2°F 33.8°F 81% 30.03 in 10.0 miles South 8.1 mph - N/A   Overcast
1:53 PM 39.9°F 33.1°F 77% 30.03 in 10.0 miles South 3.5 mph - N/A   Overcast
2:14 PM 41.0°F 33.8°F 76% 30.03 in 10.0 miles South 9.2 mph - N/A   Overcast
2:38 PM 39.2°F 33.8°F 81% 30.03 in 10.0 miles South 6.9 mph - N/A   Overcast
2:51 PM 39.2°F 33.8°F 81% 30.04 in 10.0 miles South 9.2 mph - N/A   Overcast
2:53 PM 39.9°F 33.1°F 77% 30.04 in 10.0 miles SSW 5.8 mph - N/A   Overcast
3:53 PM 39.0°F 33.1°F 79% 30.04 in 10.0 miles SSW 6.9 mph - N/A   Overcast
4:21 PM 39.2°F 32.0°F 75% 30.04 in 10.0 miles South 6.9 mph - N/A   Overcast
4:53 PM 39.0°F 33.1°F 79% 30.05 in 10.0 miles SSW 6.9 mph - 0.00 in Rain Light Rain
5:09 PM 37.4°F 32.0°F 81% 30.05 in 10.0 miles SSW 6.9 mph - 0.00 in Rain Light Rain
5:28 PM 37.4°F 33.8°F 87% 30.05 in 10.0 miles South 5.8 mph - 0.01 in Rain Light Rain
5:53 PM 37.0°F 33.1°F 86% 30.06 in 10.0 miles South 4.6 mph - 0.01 in   Overcast
6:53 PM 37.0°F 33.1°F 86% 30.06 in 10.0 miles Variable 4.6 mph - N/A   Overcast
7:53 PM 37.9°F 32.0°F 79% 30.07 in 10.0 miles South 4.6 mph - N/A   Overcast
8:53 PM 37.0°F 32.0°F 82% 30.07 in 10.0 miles South 6.9 mph - N/A   Overcast
9:53 PM 37.9°F 32.0°F 79% 30.07 in 10.0 miles South 4.6 mph - N/A   Overcast
10:53 PM 37.9°F 32.0°F 79% 30.07 in 10.0 miles South 5.8 mph - N/A   Overcast
11:16 PM 37.4°F 32.0°F 81% 30.06 in 10.0 miles South 5.8 mph - N/A   Overcast
11:53 PM 37.9°F 32.0°F 79% 30.05 in 10.0 miles South 8.1 mph - N/A   Overcast
Moon Phase
Dec. 18 Dec. 20 Dec. 28 Jan. 04 Jan. 11
Sunrise:07:46 AM (PST) Moon Rise:11:12 AM (PST)12/18
Sunset:04:28 PM (PST) Moon Set:11:18 PM (PST)12/18

Copyright © 2014 The Weather Underground, Inc.